| time (UTC) | temp F | wind direction | speed MPH | gust MPH | rain 1hr in | rain 24hr in | rain mn in | humidity % | barometer mb |
| 20260902072004 | 67 | 0 | 0.0 | 0.0 | 0.00 | 0.05 | 0.00 | 100 | 1016.6 |
| 20260902071215 | 67 | 0 | 0.0 | 0.0 | 0.00 | 0.05 | 0.00 | 100 | 1016.6 |
| 20260902070006 | 67 | 0 | 0.0 | 0.0 | 0.00 | 0.07 | 0.00 | 100 | 1016.6 |
| 20260902065004 | 67 | 0 | 0.0 | 0.0 | 0.00 | 0.07 | 0.00 | 100 | 1016.7 |
| 20260902064215 | 67 | 0 | 0.0 | 0.0 | 0.00 | 0.07 | 0.00 | 100 | 1016.5 |
| 20260902063215 | 67 | 0 | 0.0 | 0.0 | 0.00 | 0.07 | 0.00 | 100 | 1016.7 |
| 20260902062215 | 67 | 0 | 0.0 | 0.0 | 0.00 | 0.07 | 0.00 | 100 | 1016.8 |
| 20260902061004 | 67 | 0 | 0.0 | 0.0 | 0.00 | 0.07 | 0.00 | 100 | 1016.6 |
| 20260902060007 | 67 | 0 | 0.0 | 0.0 | 0.00 | 0.07 | 0.00 | 100 | 1016.7 |
| 20260902055006 | 67 | 0 | 0.0 | 0.0 | 0.00 | 0.07 | 0.00 | 100 | 1016.8 |
| 20260902054003 | 67 | 0 | 0.0 | 0.0 | 0.00 | 0.07 | 0.00 | 99 | 1016.7 |
| 20260902053006 | 67 | 0 | 0.0 | 0.0 | 0.00 | 0.07 | 0.00 | 100 | 1016.7 |
| 20260902052004 | 67 | 0 | 0.0 | 0.0 | 0.00 | 0.07 | 0.00 | 99 | 1016.5 |
| 20260902051004 | 67 | 0 | 0.0 | 0.0 | 0.00 | 0.07 | 0.00 | 99 | 1016.6 |
| 20260902050214 | 68 | 0 | 0.0 | 0.0 | 0.00 | 0.07 | 0.00 | 99 | 1016.4 |
| 20260902045004 | 68 | 0 | 0.0 | 0.0 | 0.00 | 0.07 | 0.00 | 99 | 1016.6 |
| 20260902044003 | 68 | 0 | 0.0 | 0.0 | 0.00 | 0.07 | 0.00 | 99 | 1016.4 |
| 20260902043005 | 68 | 0 | 0.0 | 0.0 | 0.00 | 0.07 | 0.00 | 98 | 1016.5 |
| 20260902042005 | 68 | 0 | 0.0 | 0.0 | 0.00 | 0.07 | 0.00 | 98 | 1016.4 |
| 20260902041214 | 68 | 0 | 0.0 | 0.0 | 0.00 | 0.07 | 0.00 | 98 | 1016.3 |
| 20260902040007 | 68 | 0 | 0.0 | 0.0 | 0.00 | 0.07 | 0.00 | 98 | 1016.3 |
| 20260902035214 | 69 | 0 | 0.0 | 0.0 | 0.00 | 0.07 | 0.07 | 98 | 1016.1 |
| 20260902034214 | 69 | 0 | 0.0 | 0.0 | 0.00 | 0.07 | 0.07 | 98 | 1016.3 |
| 20260902033216 | 69 | 180 | 0.0 | 2.0 | 0.00 | 0.07 | 0.07 | 97 | 1016.2 |
| 20260902032004 | 69 | 0 | 0.0 | 0.0 | 0.00 | 0.07 | 0.07 | 97 | 1016.3 |
| 20260902031213 | 69 | 0 | 0.0 | 0.0 | 0.00 | 0.07 | 0.07 | 97 | 1016.5 |
| 20260902030004 | 70 | 0 | 0.0 | 0.0 | 0.00 | 0.07 | 0.07 | 96 | 1016.3 |
| 20260902025004 | 70 | 0 | 0.0 | 0.0 | 0.00 | 0.07 | 0.07 | 96 | 1016.1 |
| 20260902024004 | 70 | 0 | 0.0 | 0.0 | 0.00 | 0.07 | 0.07 | 96 | 1016.3 |
| 20260902023003 | 70 | 0 | 0.0 | 0.0 | 0.00 | 0.07 | 0.07 | 96 | 1016.3 |
| 20260902022005 | 71 | 0 | 0.0 | 0.0 | 0.00 | 0.07 | 0.07 | 96 | 1016.3 |
| 20260902021003 | 71 | 0 | 0.0 | 0.0 | 0.00 | 0.07 | 0.07 | 96 | 1016.3 |
| 20260902020003 | 71 | 0 | 0.0 | 0.0 | 0.00 | 0.07 | 0.07 | 96 | 1016.4 |
| 20260902015213 | 71 | 0 | 0.0 | 0.0 | 0.00 | 0.07 | 0.07 | 96 | 1016.4 |
| 20260902014004 | 71 | 0 | 0.0 | 0.0 | 0.00 | 0.08 | 0.07 | 95 | 1016.4 |
| 20260902013004 | 71 | 0 | 0.0 | 0.0 | 0.00 | 0.08 | 0.07 | 95 | 1016.3 |
| 20260902012003 | 71 | 0 | 0.0 | 0.0 | 0.00 | 0.08 | 0.07 | 95 | 1016.0 |
| 20260902011215 | 72 | 0 | 0.0 | 0.0 | 0.00 | 0.08 | 0.07 | 94 | 1016.1 |
| 20260902010215 | 72 | 0 | 0.0 | 0.0 | 0.00 | 0.08 | 0.07 | 94 | 1015.9 |
| 20260902005003 | 72 | 0 | 0.0 | 0.0 | 0.00 | 0.08 | 0.07 | 93 | 1015.8 |
| 20260902004004 | 72 | 0 | 0.0 | 0.0 | 0.00 | 0.08 | 0.07 | 93 | 1015.6 |
| 20260902003005 | 73 | 0 | 0.0 | 0.0 | 0.00 | 0.08 | 0.07 | 92 | 1015.3 |
| 20260902002214 | 73 | 0 | 0.0 | 0.0 | 0.00 | 0.08 | 0.07 | 91 | 1015.2 |
| 20260902001004 | 74 | 0 | 0.0 | 0.0 | 0.00 | 0.08 | 0.07 | 91 | 1014.9 |
| 20260902000005 | 74 | 0 | 0.0 | 0.0 | 0.00 | 0.08 | 0.07 | 90 | 1014.9 |
| 20260901235005 | 74 | 0 | 0.0 | 0.0 | 0.00 | 0.08 | 0.07 | 89 | 1014.9 |
| 20260901234005 | 75 | 0 | 0.0 | 0.0 | 0.00 | 0.08 | 0.07 | 87 | 1014.9 |
| 20260901233005 | 76 | 0 | 0.0 | 0.0 | 0.00 | 0.08 | 0.07 | 86 | 1015.1 |
| 20260901232004 | 76 | 0 | 0.0 | 0.0 | 0.00 | 0.08 | 0.07 | 84 | 1015.0 |
| 20260901231214 | 77 | 45 | 0.0 | 3.0 | 0.00 | 0.08 | 0.07 | 83 | 1015.0 |
| 20260901230004 | 78 | 16 | 0.0 | 4.0 | 0.00 | 0.09 | 0.07 | 82 | 1015.0 |
| 20260901225005 | 78 | 21 | 2.0 | 5.0 | 0.00 | 0.09 | 0.07 | 82 | 1015.1 |
| 20260901224004 | 78 | 24 | 1.0 | 5.0 | 0.00 | 0.09 | 0.07 | 81 | 1015.3 |
| 20260901223004 | 78 | 33 | 1.0 | 3.0 | 0.00 | 0.11 | 0.07 | 82 | 1015.2 |
| 20260901222005 | 78 | 25 | 2.0 | 5.0 | 0.00 | 0.11 | 0.07 | 81 | 1015.1 |
| 20260901221214 | 78 | 26 | 1.0 | 5.0 | 0.00 | 0.11 | 0.07 | 80 | 1015.2 |
| 20260901220004 | 79 | 352 | 2.0 | 5.0 | 0.00 | 0.11 | 0.07 | 79 | 1015.0 |
| 20260901215214 | 79 | 8 | 1.0 | 5.0 | 0.00 | 0.11 | 0.07 | 78 | 1014.8 |
| 20260901214003 | 80 | 25 | 1.0 | 4.0 | 0.00 | 0.11 | 0.07 | 76 | 1014.7 |
| 20260901213004 | 81 | 343 | 2.0 | 6.0 | 0.00 | 0.11 | 0.07 | 76 | 1014.8 |
| 20260901212007 | 80 | 266 | 2.0 | 5.0 | 0.00 | 0.12 | 0.07 | 79 | 1014.8 |
| 20260901211005 | 79 | 317 | 1.0 | 4.0 | 0.00 | 0.12 | 0.07 | 79 | 1014.8 |
| 20260901210005 | 79 | 298 | 1.0 | 4.0 | 0.00 | 0.12 | 0.07 | 79 | 1014.9 |
| 20260901205005 | 79 | 354 | 0.0 | 2.0 | 0.00 | 0.12 | 0.07 | 79 | 1015.0 |
| 20260901204003 | 79 | 325 | 1.0 | 3.0 | 0.00 | 0.12 | 0.07 | 81 | 1015.0 |
| 20260901203003 | 79 | 326 | 0.0 | 2.0 | 0.00 | 0.12 | 0.07 | 81 | 1015.0 |
| 20260901202213 | 79 | 225 | 0.0 | 2.0 | 0.00 | 0.12 | 0.07 | 81 | 1015.0 |
| 20260901201006 | 79 | 225 | 0.0 | 2.0 | 0.00 | 0.12 | 0.07 | 81 | 1014.9 |
| 20260901200005 | 78 | 148 | 0.0 | 3.0 | 0.00 | 0.12 | 0.07 | 82 | 1014.8 |
| 20260901195003 | 78 | 135 | 1.0 | 3.0 | 0.00 | 0.12 | 0.07 | 83 | 1014.8 |
| 20260901194003 | 78 | 128 | 0.0 | 2.0 | 0.00 | 0.12 | 0.07 | 83 | 1014.9 |
| 20260901193003 | 77 | 52 | 1.0 | 4.0 | 0.00 | 0.12 | 0.07 | 84 | 1014.9 |
| 20260901192003 | 77 | 16 | 1.0 | 4.0 | 0.00 | 0.12 | 0.07 | 86 | 1014.8 |
| 20260901191003 | 76 | 34 | 1.0 | 4.0 | 0.00 | 0.12 | 0.07 | 88 | 1015.0 |
| 20260901190004 | 76 | 33 | 1.0 | 3.0 | 0.00 | 0.12 | 0.07 | 88 | 1014.9 |
| 20260901185003 | 76 | 19 | 3.0 | 8.0 | 0.00 | 0.12 | 0.07 | 87 | 1014.7 |
| 20260901184003 | 77 | 45 | 2.0 | 5.0 | 0.00 | 0.12 | 0.07 | 85 | 1014.7 |
| 20260901183003 | 78 | 18 | 1.0 | 3.0 | 0.00 | 0.12 | 0.07 | 83 | 1014.7 |
| 20260901182212 | 78 | 20 | 1.0 | 3.0 | 0.00 | 0.12 | 0.07 | 82 | 1014.7 |
| 20260901181003 | 78 | 33 | 0.0 | 3.0 | 0.00 | 0.12 | 0.07 | 81 | 1014.4 |
| 20260901180004 | 79 | 14 | 1.0 | 6.0 | 0.00 | 0.12 | 0.07 | 81 | 1014.3 |
| 20260901175004 | 78 | 311 | 1.0 | 4.0 | 0.00 | 0.12 | 0.07 | 83 | 1014.2 |
| 20260901174006 | 78 | 20 | 1.0 | 3.0 | 0.00 | 0.12 | 0.07 | 85 | 1014.1 |
| 20260901173004 | 77 | 2 | 1.0 | 3.0 | 0.00 | 0.12 | 0.07 | 88 | 1014.2 |
| 20260901172006 | 76 | 14 | 1.0 | 3.0 | 0.00 | 0.12 | 0.07 | 88 | 1014.3 |
| 20260901171005 | 76 | 44 | 2.0 | 5.0 | 0.00 | 0.12 | 0.07 | 87 | 1014.2 |
| 20260901170004 | 77 | 38 | 2.0 | 5.0 | 0.00 | 0.12 | 0.07 | 87 | 1014.3 |
| 20260901165005 | 77 | 43 | 0.0 | 4.0 | 0.00 | 0.12 | 0.07 | 88 | 1014.2 |
| 20260901164004 | 77 | 25 | 1.0 | 5.0 | 0.00 | 0.12 | 0.07 | 90 | 1014.1 |
| 20260901163005 | 77 | 28 | 1.0 | 5.0 | 0.00 | 0.12 | 0.07 | 92 | 1014.2 |
| 20260901162004 | 76 | 27 | 1.0 | 6.0 | 0.00 | 0.12 | 0.07 | 95 | 1013.9 |
| 20260901161005 | 76 | 32 | 0.0 | 2.0 | 0.00 | 0.12 | 0.07 | 96 | 1013.9 |
| 20260901160004 | 75 | 45 | 0.0 | 3.0 | 0.00 | 0.12 | 0.07 | 97 | 1014.0 |
| 20260901155004 | 75 | 42 | 0.0 | 4.0 | 0.00 | 0.12 | 0.07 | 99 | 1014.0 |
| 20260901154004 | 75 | 17 | 1.0 | 5.0 | 0.00 | 0.12 | 0.07 | 100 | 1014.1 |
| 20260901153004 | 74 | 288 | 0.0 | 5.0 | 0.00 | 0.12 | 0.07 | 100 | 1014.0 |
| 20260901152004 | 72 | 205 | 0.0 | 4.0 | 0.00 | 0.12 | 0.07 | 99 | 1014.0 |
| 20260901151215 | 72 | 0 | 0.0 | 0.0 | 0.00 | 0.12 | 0.07 | 99 | 1013.9 |
| 20260901150005 | 71 | 0 | 0.0 | 0.0 | 0.00 | 0.12 | 0.07 | 100 | 1014.1 |
| 20260901145003 | 70 | 0 | 0.0 | 0.0 | 0.00 | 0.12 | 0.07 | 100 | 1014.1 |
| 20260901144005 | 70 | 20 | 0.0 | 4.0 | 0.00 | 0.12 | 0.07 | 100 | 1014.6 |
| 20260901143003 | 70 | 0 | 0.0 | 0.0 | 0.00 | 0.13 | 0.07 | 100 | 1014.4 |
| 20260901142003 | 70 | 0 | 0.0 | 0.0 | 0.00 | 0.14 | 0.07 | 100 | 1014.2 |
| 20260901141003 | 70 | 0 | 0.0 | 0.0 | 0.00 | 0.15 | 0.07 | 100 | 1014.3 |
| 20260901140003 | 70 | 0 | 0.0 | 0.0 | 0.00 | 0.15 | 0.07 | 100 | 1014.1 |
| 20260901135004 | 70 | 0 | 0.0 | 0.0 | 0.00 | 0.15 | 0.07 | 100 | 1014.1 |
| 20260901134217 | 70 | 0 | 0.0 | 1.0 | 0.00 | 0.15 | 0.07 | 100 | 1014.0 |
| 20260901133213 | 70 | 0 | 0.0 | 1.0 | 0.00 | 0.15 | 0.07 | 100 | 1014.0 |
| 20260901132005 | 70 | 0 | 0.0 | 1.0 | 0.00 | 0.15 | 0.07 | 100 | 1014.3 |
| 20260901131214 | 70 | 13 | 1.0 | 6.0 | 0.00 | 0.15 | 0.07 | 100 | 1014.2 |
| 20260901130003 | 70 | 0 | 0.0 | 0.0 | 0.00 | 0.15 | 0.07 | 100 | 1014.1 |
| 20260901125004 | 70 | 0 | 0.0 | 0.0 | 0.00 | 0.15 | 0.07 | 100 | 1014.2 |
| 20260901124004 | 69 | 0 | 0.0 | 0.0 | 0.00 | 0.15 | 0.07 | 100 | 1014.2 |
| 20260901123003 | 69 | 0 | 0.0 | 0.0 | 0.00 | 0.15 | 0.07 | 100 | 1014.4 |
| 20260901122004 | 69 | 0 | 0.0 | 0.0 | 0.00 | 0.15 | 0.07 | 100 | 1014.6 |
| 20260901121003 | 69 | 0 | 0.0 | 0.0 | 0.00 | 0.15 | 0.07 | 100 | 1014.5 |
| 20260901120004 | 69 | 0 | 0.0 | 0.0 | 0.00 | 0.15 | 0.07 | 100 | 1014.7 |
| 20260901115003 | 69 | 0 | 0.0 | 0.0 | 0.00 | 0.15 | 0.07 | 100 | 1014.7 |
| 20260901114004 | 69 | 0 | 0.0 | 0.0 | 0.00 | 0.15 | 0.07 | 100 | 1014.5 |
| 20260901113004 | 68 | 0 | 0.0 | 0.0 | 0.00 | 0.15 | 0.07 | 100 | 1014.6 |
| 20260901112005 | 68 | 0 | 0.0 | 0.0 | 0.00 | 0.15 | 0.07 | 100 | 1014.7 |
| 20260901111003 | 68 | 0 | 0.0 | 0.0 | 0.00 | 0.15 | 0.07 | 100 | 1014.6 |
| 20260901110005 | 68 | 0 | 0.0 | 0.0 | 0.00 | 0.15 | 0.07 | 100 | 1014.7 |
| 20260901105004 | 68 | 0 | 0.0 | 0.0 | 0.00 | 0.15 | 0.07 | 100 | 1014.6 |
| 20260901104004 | 68 | 0 | 0.0 | 0.0 | 0.00 | 0.15 | 0.07 | 100 | 1014.4 |
| 20260901103004 | 68 | 0 | 0.0 | 0.0 | 0.01 | 0.15 | 0.07 | 100 | 1014.4 |
| 20260901102004 | 68 | 0 | 0.0 | 0.0 | 0.04 | 0.15 | 0.07 | 100 | 1014.1 |
| 20260901101005 | 68 | 135 | 1.0 | 3.0 | 0.05 | 0.15 | 0.07 | 100 | 1014.1 |
| 20260901100006 | 69 | 135 | 1.0 | 3.0 | 0.05 | 0.15 | 0.07 | 100 | 1014.2 |
| 20260901095004 | 69 | 0 | 0.0 | 0.0 | 0.05 | 0.15 | 0.07 | 100 | 1014.7 |
| 20260901094004 | 69 | 0 | 0.0 | 0.0 | 0.05 | 0.15 | 0.07 | 100 | 1014.9 |
| 20260901093005 | 69 | 0 | 0.0 | 0.0 | 0.02 | 0.13 | 0.05 | 100 | 1015.2 |
| 20260901092213 | 69 | 0 | 0.0 | 1.0 | 0.01 | 0.12 | 0.04 | 100 | 1014.8 |
| 20260901091007 | 69 | 135 | 1.0 | 3.0 | 0.00 | 0.11 | 0.02 | 100 | 1014.5 |
| 20260901090004 | 69 | 142 | 1.0 | 4.0 | 0.00 | 0.11 | 0.02 | 100 | 1014.4 |
| 20260901085213 | 69 | 141 | 0.0 | 3.0 | 0.00 | 0.11 | 0.02 | 100 | 1014.2 |
| 20260901084214 | 69 | 137 | 0.0 | 2.0 | 0.00 | 0.11 | 0.02 | 100 | 1014.3 |
| 20260901083005 | 69 | 135 | 0.0 | 3.0 | 0.00 | 0.11 | 0.02 | 100 | 1014.4 |
| 20260901082005 | 68 | 156 | 1.0 | 3.0 | 0.00 | 0.11 | 0.02 | 100 | 1014.5 |
| 20260901081215 | 68 | 142 | 0.0 | 3.0 | 0.00 | 0.11 | 0.02 | 100 | 1014.5 |
| 20260901080003 | 68 | 145 | 0.0 | 2.0 | 0.01 | 0.11 | 0.02 | 100 | 1014.8 |
| 20260901075005 | 68 | 169 | 0.0 | 3.0 | 0.02 | 0.11 | 0.02 | 100 | 1014.8 |
| 20260901074003 | 68 | 0 | 0.0 | 0.0 | 0.02 | 0.11 | 0.02 | 100 | 1015.1 |
| 20260901073003 | 68 | 0 | 0.0 | 2.0 | 0.02 | 0.11 | 0.02 | 100 | 1015.1 |